Regional Weather Roundup
Issued by NWS

Home | Current Version | Previous Version | Graphics & Text | Print | Product List | Glossary On
Versions: 1 2 3 4 5 6 7 8 9 10 11 12 13 14 15 16 17 18 19 20 21 22 23 24 25 26 27 28 29 30 31 32 33 34 35 36 37 38 39 40 41 42 43 44 45 46 47 48 49 50
000
ASUS45 KSLC 261410
RWRUT

UTAH REGIONAL WEATHER ROUNDUP
NATIONAL WEATHER SERVICE SALT LAKE CITY UT
700 AM MST WED NOV 26 2014

UTZ001>011-023>025-261500-

NORTHERN UTAH

CITY           SKY/WX    TMP DP  RH WIND       PRES   REMARKS
HILL AFB       PTCLDY    41  31  67 SE3       30.36R
LOGAN          CLOUDY    41  33  73 CALM      30.34R
OGDEN          PTCLDY    35  31  85 S7        30.35R WCI  29
PROVO AIRPORT  CLEAR     27  23  86 CALM      30.40R
SALT LAKE CITY PTCLDY    38  27  64 E10       30.36R WCI  31
VERNAL         PTCLDY    29  23  78 W6        30.27R WCI  23
WENDOVER       PTCLDY    37  25  60 N5        30.37R WCI  34
HEBER CITY     PTCLDY    28  27  93 NE5       30.38R WCI  23
WEST JORDAN    CLEAR     36  34  93 S9        30.37R WCI  29

$$

UTZ012>022-026-027-261500-

SOUTHERN/CENTRAL UTAH

CITY           SKY/WX    TMP DP  RH WIND       PRES   REMARKS
BLANDING       PTCLDY    31  20  64 CALM      30.43S
BRYCE CANYON   CLEAR     20  16  84 W8        30.47R WCI  10
CEDAR CITY     PTCLDY    25  19  78 SE3       30.41R
DELTA          MOCLDY    26  23  86 CALM      30.42R
MILFORD        PTCLDY    26  16  65 S9        30.42R WCI  17
MOAB/CYNLANDS  CLEAR     21   7  54 CALM      30.36R
PRICE          CLEAR     31  18  58 NW5       30.34R WCI  26
ST GEORGE      SUNNY     32   7  34 CALM      30.47R
KANAB          PTCLDY    23  10  58 NE5       30.46S WCI  17

$$

REGIONAL REPORTS     COLORADO/ARIZONA

CITY           SKY/WX    TMP DP  RH WIND       PRES   REMARKS
CRAIG, CO      CLOUDY    31  26  82 CALM      30.27R
GRAND JUNCTION PTCLDY    22  17  81 E5        30.36R WCI  16
RIFLE          PTCLDY    23  19  85 CALM      30.37R
MONTROSE       CLEAR     29  20  69 S5        30.37R WCI  24
CORTEZ         CLEAR     21  16  81 E7        30.37R WCI  12
PAGE, AZ       CLEAR     36  11  35 CALM      30.39R
GRAND CANYON   PTCLDY    16   6  65 CALM      30.44R
KINGMAN        PTCLDY    40   8  26 E9        30.38R WCI  34
FLAGSTAFF      CLEAR     22  13  68 CALM      30.43R

$$

REGIONAL REPORTS    NEVADA/IDAHO/WYOMING

CITY           SKY/WX    TMP DP  RH WIND       PRES   REMARKS
LAS VEGAS, NV  CLEAR     46  16  30 SW8       30.35R
ELY            PTCLDY    19  32 100 S10       30.47S WCI   7
ELKO           CLEAR     25  23  92 CALM      30.43R
POCATELLO, ID  CLEAR     45  37  73 SW22      30.30R
BURLEY         MOCLDY    42  32  67 SW12      30.31R
EVANSTON, WY   PTCLDY    34  28  79 W18       30.33R WCI  23
ROCK SPRINGS   CLOUDY    36  29  75 W32G38    30.21R WCI  23

$$



USA.gov is the U.S. government's official web portal to all federal, state and local government web resources and services.